Jonesboro, AR

3:30 AM CDT on May 23, 2017 (GMT -0500)
Jonesboro Municipal

Weather History for KJBR - January, 2013

Change the Weather History Date:

Wednesday, January 30, 2013

  Actual Average Record
Temperature  
Mean Temperature 45 °F 38 °F  
Max Temperature 55 °F 47 °F 75 °F (1917)
Min Temperature 34 °F 29 °F 0 °F (1966)
Degree Days  
Heating Degree Days 20 27  
Month to date heating degree days 705 831  
Since 1 July heating degree days 1967 2273  
Cooling Degree Days 0 0  
Month to date cooling degree days 0 0  
Year to date cooling degree days 0 0  
Moisture  
Dew Point 29 °F    
Average Humidity 66    
Maximum Humidity 77    
Minimum Humidity 54    
Precipitation  
Precipitation 0.12 in 0.13 in 4.73 in (1969)
Month to date precipitation 5.37 3.28  
Year to date precipitation 5.37 3.28  
Snow  
Snow 0.00 in - - ()
Month to date snowfall 0.5  
Snow Depth 0.00 in    
Sea Level Pressure  
Sea Level Pressure 29.66 in    
Wind  
Wind Speed 16 mph (WSW)    
Max Wind Speed 32 mph    
Max Gust Speed 43 mph    
Visibility 10 miles    
Events Rain    
T = Trace of Precipitation, MM = Missing Value Source: NWS Daily Summary

Daily Weather History Graph

Daily Weather History Graph

Search for Another Location

Airport or City:

Trip Planner

Search our weather history database for the weather conditions in past years. The results will help you decide how hot, cold, wet, or windy it might be!

Date:

Astronomy

Jan. 30, 2013 Rise Set
Actual Time 7:04 AM CST 5:28 PM CST
Civil Twilight 6:37 AM CST 5:55 PM CST
Nautical Twilight 6:06 AM CST 6:25 PM CST
Astronomical Twilight 5:36 AM CST 6:55 PM CST
Moon 9:16 PM CST (1/30) 8:41 AM CST (1/30)
Length of Visible Light 11h 17m
Length of Day
10h 23m
Waning Gibbous, 87% of the Moon is Illuminated
Jan 30
Waning Gibbous
Feb 3
Last Quarter
Feb 10
New
Feb 17
First Quarter
Feb 25
Full

Hourly Weather History & Observations

Time (CST) Temp. Windchill Dew Point Humidity Pressure Visibility Wind Dir Wind Speed Gust Speed Precip Events Conditions
12:53 AM 55.0 °F - - N/A% 29.57 in 10.0 mi Calm Calm - 0.06 in Rain Light Rain
1:53 AM 55.0 °F - - N/A% 29.57 in 10.0 mi SE 5.8 mph - 0.00 in Rain Light Rain
2:53 AM 54.0 °F - - N/A% 29.53 in 10.0 mi SSE 6.9 mph - 0.06 in Rain Light Rain
3:42 AM 53.6 °F - - N/A% 29.55 in 10.0 mi South 8.1 mph - 0.00 in   Overcast
3:53 AM 54.0 °F - - N/A% 29.54 in 10.0 mi South 9.2 mph - 0.00 in   Overcast
4:53 AM 55.0 °F - - N/A% 29.51 in 10.0 mi South 11.5 mph - N/A   Overcast
5:53 AM 55.0 °F - - N/A% 29.51 in 10.0 mi SSW 15.0 mph - N/A   Overcast
6:21 AM 55.4 °F - - N/A% 29.51 in 10.0 mi SSW 11.5 mph - N/A   Overcast
6:29 AM 55.4 °F - - N/A% 29.51 in 10.0 mi SSW 12.7 mph 19.6 mph N/A   Overcast
6:53 AM 54.0 °F - - N/A% 29.51 in 10.0 mi SSW 12.7 mph - N/A   Overcast
7:03 AM 55.4 °F - - N/A% 29.52 in 10.0 mi SSW 12.7 mph - N/A   Overcast
7:27 AM 55.4 °F - - N/A% 29.52 in 10.0 mi SSW 13.8 mph - N/A   Mostly Cloudy
7:35 AM 55.4 °F - - N/A% 29.51 in 10.0 mi SW 15.0 mph 23.0 mph N/A   Mostly Cloudy
7:53 AM 55.0 °F - - N/A% 29.52 in 10.0 mi SW 15.0 mph 26.5 mph N/A   Mostly Cloudy
8:53 AM 54.0 °F - - N/A% 29.51 in 10.0 mi WSW 19.6 mph 31.1 mph N/A   Scattered Clouds
9:53 AM 54.0 °F - - N/A% 29.54 in 10.0 mi West 23.0 mph 32.2 mph N/A   Mostly Cloudy
10:53 AM 48.9 °F - 41.0 °F 74% 29.60 in 10.0 mi WNW 12.7 mph 27.6 mph N/A   Overcast
11:26 AM 48.2 °F - 37.4 °F 66% 29.62 in 10.0 mi WNW 25.3 mph 33.4 mph N/A   Overcast
11:53 AM 46.9 °F - 36.0 °F 66% 29.60 in 10.0 mi WNW 16.1 mph 33.4 mph N/A   Mostly Cloudy
12:17 PM 46.4 °F 38.1 °F 35.6 °F 66% 29.62 in 10.0 mi WNW 24.2 mph 32.2 mph N/A   Mostly Cloudy
12:27 PM 46.4 °F 38.3 °F 33.8 °F 62% 29.62 in 10.0 mi WNW 23.0 mph 31.1 mph N/A   Overcast
12:53 PM 46.0 °F 38.0 °F 32.0 °F 58% 29.62 in 10.0 mi WNW 21.9 mph 31.1 mph N/A   Overcast
1:53 PM 45.0 °F 36.6 °F 30.0 °F 56% 29.66 in 10.0 mi West 21.9 mph 35.7 mph N/A   Overcast
2:53 PM 43.0 °F 32.5 °F 28.9 °F 58% 29.71 in 10.0 mi WNW 29.9 mph 42.6 mph N/A   Overcast
3:53 PM 42.1 °F 35.2 °F 28.0 °F 58% 29.78 in 10.0 mi WNW 12.7 mph 29.9 mph N/A   Mostly Cloudy
4:53 PM 39.9 °F 30.5 °F 25.0 °F 55% 29.81 in 10.0 mi WNW 19.6 mph 31.1 mph N/A   Overcast
5:53 PM 37.9 °F 27.9 °F 24.1 °F 57% 29.87 in 10.0 mi WNW 19.6 mph 31.1 mph N/A   Overcast
6:53 PM 37.0 °F 26.4 °F 25.0 °F 62% 29.91 in 10.0 mi WNW 20.7 mph 27.6 mph N/A   Overcast
7:53 PM 37.0 °F 26.4 °F 23.0 °F 57% 29.95 in 10.0 mi NW 20.7 mph 34.5 mph N/A   Overcast
8:53 PM 36.0 °F 28.0 °F 25.0 °F 64% 29.98 in 10.0 mi WNW 11.5 mph 23.0 mph N/A   Overcast
9:53 PM 36.0 °F 24.7 °F 23.0 °F 59% 30.01 in 10.0 mi West 21.9 mph 32.2 mph N/A   Overcast
10:53 PM 34.0 °F 22.7 °F 23.0 °F 64% 30.03 in 10.0 mi West 19.6 mph 26.5 mph N/A   Mostly Cloudy
11:53 PM 34.0 °F 23.8 °F 21.0 °F 59% 30.04 in 10.0 mi WNW 16.1 mph 24.2 mph N/A   Partly Cloudy